Location: Birstum
(53.0733°N, 5.8443°E)
Time: 07:09:04
(UTC+00:00)

Daily predictions for brighter satellites

Satellite Brightness Start Highest point End
(mag) Time Altitude Azimuth Time Altitude Azimuth Time Altitude Azimuth
Cosmos 1025 Rocket 3.1 16:31:03 10° S 16:35:23 89° E 16:39:47 10° NNE
Cosmos 2344 4.3 16:28:44 10° WNW 16:36:32 47° NNE 16:46:41 10° E
CZ-2C R/B 4.0 16:32:13 10° ESE 16:36:50 30° ENE 16:41:39 10° N
CZ-4B R/B 3.3 16:36:29 10° ENE 16:38:08 13° E 16:39:46 10° ESE
H-2A R/B 2.4 16:34:27 10° SSE 16:38:28 75° ENE 16:42:43 10° NNW
Okean-O 4.0 16:35:48 10° E 16:38:46 18° NE 16:41:44 10° NNE
Cosmos 773 Rocket 4.0 16:34:39 10° NNW 16:39:47 59° ENE 16:44:52 10° SE
H-2A R/B 3.2 16:36:20 10° E 16:39:54 20° NE 16:43:32 10° N
SeaSat 1 2.9 16:36:03 10° NNE 16:40:57 63° NW 16:45:49 10° SW
Okean O Rocket 1.7 16:37:00 10° SSE 16:41:22 58° ENE 16:45:44 10° N
YAOGAN 6 3.2 16:39:37 10° S 16:43:09 63° W 16:46:46 10° NNW
SMAP 3.0 16:38:44 10° SSE 16:43:22 77° ENE 16:48:03 10° NNW
Cosmos 1626 2.4 16:40:15 10° S 16:43:48 47° E 16:47:23 10° NNE
CZ-4B R/B 3.2 16:39:57 10° SSE 16:45:30 77° ENE 16:51:10 10° NNW
SL-24 R/B 4.2 16:41:36 10° SSE 16:45:56 70° ENE 16:50:39 10° N
Timation 1 Rocket 4.5 16:40:52 10° SSW 16:46:55 86° NW 16:52:59 10° NNE
Cosmos 1603 4.0 16:43:11 10° NW 16:48:53 74° WSW 16:54:35 10° SSE
Meteor 2-10 Rocket 4.2 16:44:20 10° N 16:49:31 37° ENE 16:54:29 10° SE
AQUARIUS 4.1 16:45:49 10° SSE 16:50:18 78° ENE 16:54:49 10° NNW
PAYLOAD B 4.5 16:45:01 10° SSE 16:50:30 76° WSW 16:56:04 10° NNW
Cosmos 2297 Rocket 3.4 16:45:18 10° WSW 16:50:32 37° NW 16:55:47 10° NNE
OPS 8737 4.2 16:51:42 10° NW 16:54:41 73° NE 16:58:22 10° SE
Cosmos 1606 Rocket 3.6 16:50:42 10° N 16:55:00 55° ENE 16:59:20 10° SSE
KORONAS-FOTON 4.3 16:52:46 10° SSW 16:56:39 65° WNW 17:00:35 10° N
H-2A R/B 2.4 16:52:34 10° NNE 16:56:57 50° E 17:01:13 10° S
CZ-2D R/B 3.9 16:54:40 10° SE 16:58:07 32° ENE 17:01:35 10° N
USA 234 3.4 16:53:17 10° ENE 16:59:45 64° N 17:06:13 10° W
YAOGAN 1 3.6 16:57:27 10° ESE 17:00:55 24° ENE 17:04:22 10° N
CZ-4C R/B 2.6 16:57:46 10° NNE 17:00:56 82° ESE 17:04:05 10° SSW
Cosmos 1892 Rocket 4.5 16:57:20 10° SE 17:00:59 27° E 17:04:38 10° NNE
ATLAS 5 CENTAUR R/B 1.9 16:58:06 10° SSW 17:02:02 49° SE 17:06:05 12° NE
Cosmos 2082 4.4 16:57:13 10° SW 17:02:49 55° NW 17:08:26 10° NNE
FengYun 1-2 T 4.3 16:57:28 10° SSE 17:03:03 85° ENE 17:08:43 10° NNW
Tsikada Rocket 4.2 16:58:16 10° SSW 17:04:36 83° W 17:10:54 10° N
NOAA 12 4.4 16:59:46 10° S 17:04:59 72° WSW 17:10:16 10° NNW
MOS 1 Rocket 4.3 17:02:43 10° NE 17:06:07 22° E 17:09:28 10° SE
SL-14 R/B 3.2 17:02:26 10° S 17:06:17 65° E 17:10:11 10° NNE
ATLAS 3B R/B 4.1 17:00:08 10° NW 17:06:39 45° WSW 17:13:25 10° S
Helios 1A Rocket 4.1 17:03:35 10° ESE 17:06:47 22° ENE 17:09:58 10° N
Cosmos 2228 2.9 17:02:45 10° N 17:07:02 77° ENE 17:11:19 10° SSE
RESURS DK-1 2.3 17:03:27 10° SSW 17:07:36 86° ESE 17:11:47 10° NE
Cosmos 2142 Rocket 4.4 17:02:46 10° N 17:08:59 78° ENE 17:15:08 10° SSE
SKYMED 2 4.4 17:08:19 10° NNE 17:12:12 31° E 17:16:04 10° SSE
Cosmos 1538 Rocket 3.9 17:08:19 10° NNW 17:13:31 65° ENE 17:18:38 10° SE
Aureole 3 4.1 17:10:43 10° N 17:13:49 23° ENE 17:16:29 10° ESE
Meteor 2-5 Rocket 3.6 17:09:43 10° S 17:15:16 75° E 17:20:49 10° NNE
CZ-4C R/B 2.5 17:10:05 10° WSW 17:15:19 69° NW 17:21:19 12° NE
CZ-3B R/B 1.0 17:13:46 10° WNW 17:15:50 83° NNE 17:20:09 10° ESE
SJ 16-02 2.8 17:15:21 10° SE 17:18:11 17° E 17:18:57 16° E
Cosmos 1777 Rocket 4.4 17:16:20 10° S 17:21:16 42° ESE 17:26:00 11° NE
Cosmos 2263 Rocket 2.2 17:17:21 10° SSW 17:23:02 83° ESE 17:28:44 10° NNE
YAOGAN 3 4.5 17:19:22 10° SSE 17:23:42 71° ENE 17:28:05 10° N
Cosmos 1455 2.9 17:21:02 10° N 17:24:28 31° ENE 17:27:55 10° SE
Cosmos 968 Rocket 4.3 17:20:47 10° SW 17:25:44 50° WNW 17:30:45 10° NNE
Cosmos 2058 Rocket 3.1 17:22:00 10° N 17:26:27 58° ENE 17:30:54 10° SSE
Cosmos 1354 Rocket 4.1 17:22:17 10° SSW 17:27:38 89° WNW 17:33:01 10° NNE
Cosmos 1300 3.5 17:25:01 10° NNW 17:28:45 55° W 17:32:29 10° S
USA-17 4.2 17:25:42 10° SW 17:29:10 83° NW 17:30:58 23° NE
COSMOS 2406 4.2 17:25:03 10° NNW 17:29:58 27° NE 17:32:43 19° ENE
Landsat 5 4.2 17:29:32 10° N 17:33:26 51° WNW 17:37:11 10° SW
NOSS 7 (H) 4.2 17:30:55 10° SW 17:34:03 69° NW 17:35:34 25° NE
GENESIS II 4.2 17:32:59 10° SW 17:37:00 82° SE 17:39:28 23° NE
ARGOS 3.6 17:34:18 10° SE 17:39:15 39° ENE 17:44:14 10° N
NOSS 3-1 (C) 4.0 17:33:17 10° NW 17:40:10 59° NNE 17:47:11 15° ESE
Lacrosse 5 2.0 17:35:07 10° WNW 17:40:12 76° SSW 17:45:00 11° SE
CREW DRAGON DEMO-1 DEB 3.2 17:37:44 10° W 17:40:35 52° SSW 17:41:52 27° SE
Cosmos 1726 Rocket 3.9 17:37:40 10° NNW 17:42:01 69° W 17:46:22 10° S
Okean 1-7 Rocket 3.9 17:38:05 10° SSE 17:42:25 45° E 17:46:48 10° NNE
ERS-2 2.7 17:42:02 29° ENE 17:42:59 34° E 17:46:19 10° SSE
CZ-2C R/B 4.1 17:45:49 18° ESE 17:45:49 18° ESE 17:48:21 10° SE
ISS -1.5 17:43:16 10° S 17:44:57 13° SE 17:45:00 13° SE
Cosmos 1939 Rocket 3.5 17:42:14 10° S 17:46:19 60° W 17:50:23 10° NNW
CSL-04 Debris 4.4 17:44:11 10° SE 17:49:19 47° ENE 17:54:28 10° N
Meteor 1-24 Rocket 3.7 17:44:04 10° SSW 17:49:24 78° WNW 17:54:44 10° NNE
COSMOS 2455 3.0 17:44:35 10° SSW 17:50:23 52° ESE 17:54:02 23° NE
Cosmos 1833 Rocket 3.5 17:48:14 10° NNW 17:53:12 31° NE 17:54:41 27° ENE
Cosmos 1626 Rocket 4.2 17:49:47 10° SSE 17:53:41 32° E 17:54:01 32° E
Cosmos 2082 Rocket 3.4 17:50:23 10° NNW 17:54:57 23° NNE 17:55:56 22° NE
Cosmos 1844 4.4 17:50:37 10° SSE 17:55:36 33° ESE 17:57:10 28° ENE
IRS-1C Rocket 4.1 17:51:53 10° SSE 17:57:09 83° WSW 18:02:27 10° NNW
USA 229 DEB 4.0 17:50:10 10° NW 17:57:10 57° NNE 18:01:49 24° E
USA 229 4.0 17:50:16 10° NW 17:57:16 57° NNE 18:01:52 24° E
USA 281 4.3 17:56:41 22° NE 17:58:17 25° NE 18:03:20 10° NNW
CZ-4 R/B 1.3 17:54:28 10° SSE 17:58:34 80° ENE 18:02:36 10° NNW
NOAA 15 4.5 17:54:43 10° SSE 17:59:58 77° ENE 18:05:16 10° NNW
COSMO-SKYMED 1 2.5 17:56:08 10° NNE 18:00:31 83° ESE 18:04:52 10° SSW
NOSS 3-4 (A) 4.3 17:57:03 10° W 18:02:51 44° NNW 18:07:06 20° NE
NOSS 3-4 (C) 4.3 17:57:12 10° W 18:02:59 44° NNW 18:07:15 20° NE
SL-08 RB Rocket 4.0 18:05:15 37° E 18:06:02 41° ENE 18:10:16 10° N
Ariane Rocket 4.2 18:10:03 24° NE 18:10:03 24° NE 18:13:04 10° N
CZ-4B R/B 1.9 18:08:14 17° N 18:10:43 59° WNW 18:14:00 10° SSW
Cosmos 2227 Rocket 4.2 18:07:13 10° WNW 18:11:17 20° NNW 18:15:24 10° NNE
NOSS 3-1 (A) 4.0 18:05:48 10° NW 18:12:43 60° NNE 18:16:57 29° E
Okean-O 2.7 18:10:17 10° SSE 18:14:43 80° WSW 18:19:12 10° NNW
Cosmos 923 Rocket 4.0 18:09:50 10° NNW 18:15:14 90° E 18:20:34 10° SSE
CZ-2C R/B 3.7 18:11:06 10° S 18:16:22 60° W 18:21:57 10° NNW
Cosmos 1844 Rocket 2.8 18:11:56 10° S 18:17:26 55° ESE 18:19:24 37° ENE
Okean O Rocket 4.3 18:14:41 10° SW 18:18:04 21° W 18:21:28 10° NW
H-2A R/B 2.0 18:13:42 10° SSE 18:18:42 86° WSW 18:23:53 10° NNW
Meteor 1-21 Rocket 4.1 18:14:48 10° S 18:20:15 63° E 18:25:18 12° NNE
Cosmos 158 Rocket 4.1 18:15:17 10° NNW 18:20:36 78° WSW 18:26:00 10° SSE
ATLAS 2AS CENTAUR R/B 3.6 18:12:55 10° W 18:20:38 51° NNW 18:25:30 22° NE
Aureole 2 Rocket 3.3 18:17:38 10° SSW 18:19:28 33° S 18:19:28 33° S
Meteor 2-8 Rocket 4.3 18:14:52 10° N 18:20:56 64° ENE 18:26:59 10° SSE
Cosmos 1680 Rocket 3.4 18:17:20 10° NNW 18:22:38 82° ENE 18:26:36 18° SSE
SAR-Lupe-4 3.8 18:31:28 60° SSW 18:31:28 60° SSW 18:34:26 10° SSW
Cosmos 1627 Rocket 4.5 18:26:14 10° SSE 18:32:14 55° E 18:38:20 10° NNE
H-2A R/B 4.2 18:28:57 10° N 18:32:40 26° WNW 18:36:19 10° WSW
Cosmos 2098 Rocket 4.5 18:26:52 10° SSE 18:33:43 50° E 18:40:48 10° NNE
Cosmos 1818 3.6 18:28:53 10° SSW 18:34:13 59° SE 18:34:53 55° E
Cosmos 2297 Rocket 4.4 18:33:00 10° NW 18:36:18 15° NNW 18:39:21 11° NNE
YAOGAN 1 3.3 18:32:31 10° S 18:36:45 53° W 18:41:00 10° NNW
Cosmos 1428 Rocket 4.5 18:31:08 10° SSE 18:37:14 56° E 18:43:24 10° NNE
CSL-04 Rocket 3.7 18:35:09 10° SSE 18:40:34 82° WSW 18:46:07 10° NNW
Helios 1A Rocket 3.6 18:37:33 10° S 18:41:37 55° WSW 18:45:43 10° NNW
USA 234 3.2 18:40:19 45° E 18:42:34 81° NNE 18:49:09 10° WNW
APEX 4.5 18:36:41 10° SSW 18:43:40 86° WNW 18:46:31 35° NNE
MOS 1 Rocket 3.9 18:40:55 13° N 18:44:42 50° WNW 18:48:50 10° SW
Iridium 4 Rocket 3.6 18:39:06 10° N 18:44:57 87° E 18:50:20 10° S
ATLAS 5 CENTAUR R/B 2.6 18:42:41 10° W 18:46:45 41° NNW 18:47:38 37° N
Cosmos 1092 Rocket 3.8 18:41:07 10° S 18:47:19 81° E 18:53:30 10° NNE
Cosmos 1812 Rocket 3.6 18:43:40 10° NNW 18:48:07 77° W 18:48:54 58° SSW
Meteor 2-15 Rocket 4.4 18:44:41 10° N 18:50:48 61° ENE 18:51:10 60° E
Cosmos 2344 4.2 18:43:24 10° NW 18:52:16 87° NE 18:59:35 28° SE
SL-24 R/B - RUBIN 2 4.4 18:46:34 10° SW 18:53:16 79° SE 18:54:49 56° ENE
SJ 16-02 1.5 18:51:51 10° SSW 18:55:59 69° W 18:55:59 69° W
Cosmos 1455 4.3 18:56:45 10° NNW 18:59:59 27° W 19:03:14 10° SSW
Cosmos 2112 Rocket 4.4 18:54:51 10° NNW 19:00:03 62° WSW 19:02:18 33° S
MetOp-A 4.2 19:04:29 66° N 19:04:29 66° N 19:09:08 10° NNW
CZ-4C R/B 3.5 18:59:36 10° WNW 19:04:53 35° N 19:06:30 31° NNE
Cosmos 2263 Rocket 3.9 19:02:47 10° W 19:07:38 28° NW 19:10:38 18° N
COSMOS 2406 3.2 19:09:12 10° NNW 19:14:49 83° NW 19:14:49 83° NW
ERS-2 4.2 19:16:37 26° WNW 19:16:37 26° WNW 19:19:28 10° WSW
ARGOS 4.3 19:14:28 10° SSW 19:19:32 41° W 19:24:38 10° NNW
ISS -0.5 19:17:54 10° SW 19:17:58 10° SW 19:17:58 10° SW
Lacrosse 5 3.9 19:18:41 10° WNW 19:22:34 22° SW 19:24:15 19° SSW
CZ-2C R/B 3.6 19:27:19 41° SSW 19:27:19 41° SSW 19:30:51 10° SSW
NOSS 3-1 (C) 4.4 19:24:09 10° NW 19:31:20 58° SW 19:34:39 37° S
Cosmos 1553 Rocket 4.2 19:28:51 10° NNW 19:35:16 71° W 19:36:14 61° SW
COSMOS 2455 3.6 19:30:40 10° WSW 19:36:28 47° NW 19:37:13 44° NNW
Cosmos 1833 Rocket 3.3 19:32:02 10° NW 19:36:25 54° NW 19:36:25 54° NW
Cosmos 1844 4.2 19:33:55 10° SW 19:39:07 56° WNW 19:39:07 56° WNW
Cosmos 2082 Rocket 3.2 19:34:15 10° NNW 19:37:48 39° NNW 19:37:48 39° NNW
USA 281 3.7 19:43:33 50° N 19:43:33 50° N 19:48:24 10° NNW
Cosmos 2026 Rocket 4.4 19:35:53 10° SSW 19:41:54 57° WNW 19:48:03 10° N
USA 229 DEB 4.2 19:41:15 10° NW 19:48:21 59° SW 19:49:18 55° SSW
USA 229 4.2 19:41:21 10° NW 19:48:26 59° SW 19:49:21 56° SSW
USA 267 4.3 19:51:34 33° SSW 19:51:34 33° SSW 19:55:05 10° SW
Cosmos 1844 Rocket 4.0 19:56:20 10° WSW 20:01:07 37° NW 20:01:07 37° NW
NOSS 3-1 (A) 4.4 19:56:43 10° NW 20:03:55 58° SW 20:04:27 57° SW
ATLAS 2AS CENTAUR R/B 3.9 20:06:02 10° WNW 20:12:56 37° N 20:12:56 37° N
USA 234 4.2 20:27:41 41° W 20:27:41 41° W 20:32:16 10° WNW
CZ-4C R/B 4.4 20:49:08 10° NW 20:51:41 24° NW 20:51:41 24° NW
